Home   Weather   Martigny   Past weeks

Flag for Switzerland Past Weather in Martigny, Valais, Switzerland — Yesterday and Last 2 Weeks

Now
17 °F

Cold.


Feels Like: 11 °F
Forecast: 11 / 33 °F
Wind: 3 mph from East

Location: Sion

Current Time: Jan 17, 2017 at 10:33:21 pm

Latest Report: Jan 17, 2017 at 9:00 pm


Visibility: N/A

Pressure: 30.36 "Hg

Humidity: 71%

Dew Point: 9 °F

Location of MartignyLocation

Past Weather in Martigny — Graph

°F

Martigny Temperature Yesterday

Maximum temperature yesterday: 27 °F (at 2:00 pm)
Minimum temperature yesterday: 14 °F (at 11:00 pm)
Average temperature yesterday: 19 °F

High & Low Weather Summary for the Past Weeks

 TemperatureHumidityPressure
High40 °F (Jan 13, 4:00 am)98% (Jan 13, 12:00 am)30.69 "Hg (Jan 13, 12:00 am)
Low12 °F (Jan 17, 8:00 am)45% (Jan 17, 4:00 pm)29.70 "Hg (Jan 13, 4:00 am)
Average28 °F79%30.25 "Hg
* Reported Jan 2 9:00 pm — Jan 17 9:00 pm, Martigny, Weather by CustomWeather, © 2017

Note: Actual official high and low records may vary slightly from our data, if they occured in-between our weather recording intervals... More about our weather records

Advertising

Martigny Weather History for the Previous 24 Hours

Scroll right to see more
 ConditionsComfort  
Time TempWeatherWind HumidityBarometerVisibility
9:00 pm
Tue, Jan 17
17 °FCold.3 mph71%30.36 "HgN/A
8:00 pm18 °FCold.3 mph70%30.34 "HgN/A
7:00 pm19 °FClear.2 mph70%30.32 "Hg22 mi
6:00 pm19 °FCold.1 mph66%30.30 "HgN/A
5:00 pm23 °FCold.2 mph58%30.27 "HgN/A
4:00 pm24 °FSunny.2 mph45%30.25 "Hg25 mi
3:00 pm25 °FChilly.5 mph48%30.24 "HgN/A
2:00 pm24 °FCold.5 mph51%30.25 "HgN/A
1:00 pm22 °FSunny.1 mph50%30.28 "Hg22 mi
12:00 pm20 °FCold.3 mph64%30.31 "HgN/A
11:00 am16 °FCold.2 mph73%30.35 "HgN/A
10:00 am14 °FCold.3 mph78%30.35 "HgN/A
9:00 am13 °FCold.2 mph80%30.35 "HgN/A
8:00 am12 °FCold.1 mph85%30.35 "HgN/A
7:00 am13 °FCold.3 mph82%30.33 "HgN/A
6:00 am13 °FCold.3 mph81%30.31 "HgN/A
5:00 am15 °FCold.3 mph82%30.30 "HgN/A
4:00 am14 °FPassing clouds.2 mph82%30.30 "Hg12 mi
3:00 am14 °FCold.3 mph83%30.30 "HgN/A
2:00 am16 °FCold.3 mph79%30.28 "HgN/A
1:00 am15 °FClear.1 mph83%30.28 "Hg12 mi
12:00 am16 °FCold.1 mph80%30.28 "HgN/A
11:00 pm
Mon, Jan 16
14 °FCold.2 mph83%30.28 "HgN/A
10:00 pm18 °FPassing clouds.1 mph76%30.26 "Hg12 mi
Weather by CustomWeather, © 2017

See weather overviewHow to use our weather pages